Starlink 3763

decayed
NORAD ID: 52556 Int'l Des: 2022-051 Owner: SPXS Country: US Constellation: starlink
LEOCIRCULAR
Group

About Starlink 3763

Description loading...

Altitude History

Altitude vs Time

uPlot chart will show altitude changes over time

Two-Line Element Set

1 52556U 22051Z 26031.84147898 .07956691 12074-4 19732-2 0 9999
2 52556 53.1616 164.7684 0007733 294.9702 65.0537 16.28319472207701
Epoch: Jan 31, 2026 • Age: 754 hours

Current Status

Position data unavailable
Launch Date May 13, 2022
Age 3.8 years
Decay Date Feb 1, 2026
Type internet

Technical Details

Classification Payload
Mass 297.00 kg
Dry Mass 275.00 kg
Total Mass 297.00 kg
Length 0.20 m
Diameter 2.80 m
Span 9.00 m
Shape Box + pan
Manufacturer SPXS
Bus Type Starlink
Phase Status Unknown Transfer Status
Owner/State SPXS/US

Large Constellations

Loading constellations...